[[{"header":{"parameterUnit":"m.s-1","parameterCategory":1,"la1":30.2991,"la2":30.254,"lo1":-89.0895,"lo2":-89.0444,"dy":0.0017,"dx":0.0017,"nx":28,"ny":28,"refTime":"2025-07-27T09:00:00:Z","depth":0,"parameterNumber":2,"parameterNumberName":"U-component_of_WINDS"},"data":[0,0,0,0,0,0,0,0,0,0,0,0,0,0,0,0,0,0,0,0,0,0,0,0,0,0,0,0,0,0,0,0,0,0,0,0,0,0,0,0,0,0,0,0,0,0,0,0,0,0,0,0,0,0,0,0,0,0,3.2594,3.2595,0,3.2625,3.2626,3.2626,3.2548,3.2546,3.2543,3.2541,3.2572,3.2575,3.2578,0,0,0,0,0,0,0,0,0,0,0,0,0,3.2469,3.2471,3.2594,3.2595,3.2595,3.2625,3.2626,3.2626,3.2548,3.2545,3.2542,3.254,3.2571,3.2574,3.2578,0,0,0,0,0,0,0,0,0,0,0,0,0,3.2514,3.2472,3.2594,3.256,3.2557,3.2625,3.2626,3.2626,3.2549,3.2545,3.2542,3.2538,3.2569,3.2574,3.2579,3.2681,0,0,3.2593,3.2595,0,0,0,0,0,0,0,0,3.2511,3.2519,3.2565,3.2563,3.256,3.2579,3.2593,3.2645,3.255,3.2552,3.2541,3.2536,3.2577,3.2581,3.2595,3.2682,3.2684,3.2593,3.2596,3.2598,3.2599,0,0,0,0,0,0,0,3.2508,3.2517,3.2606,3.2565,3.2562,3.2543,3.2546,3.2602,3.2585,3.2552,3.2546,3.2551,3.2575,3.259,3.2595,3.2684,3.2593,3.2597,3.26,3.2602,3.286,3.2863,0,0,0,0,0,0,3.251,3.2515,3.2605,3.2607,3.2526,3.2549,3.2551,3.2576,3.2584,3.2582,3.2554,3.2547,3.2584,3.2589,3.2596,3.2717,3.2598,3.2602,3.2605,3.2856,3.286,3.2865,0,0,0,0,0,0,3.2507,3.2518,3.2604,3.256,3.2569,3.2555,3.2584,3.2579,3.2594,3.2586,3.2582,3.2573,3.2582,3.2589,3.2661,3.2717,3.2604,3.2609,3.2851,3.2857,3.2863,3.2961,0,0,0,0,0,0,3.2504,3.2518,3.2556,3.2561,3.2572,3.2669,3.2587,3.2582,3.2603,3.2594,3.2603,3.26,3.2579,3.2654,3.2666,3.2722,3.2612,3.2846,3.2854,3.2861,3.2953,3.297,3.2984,0,0,0,0,0,3.25,3.2582,3.2559,3.257,3.2619,3.2672,3.2678,3.2653,3.2608,3.2646,3.2641,3.26,3.2709,3.2662,3.2674,3.2733,3.2842,3.2851,3.286,3.2946,3.2966,3.2984,0,0,0,0,0,0,3.2584,3.2582,3.2556,3.2642,3.2658,3.2659,3.2707,3.2675,3.2704,3.2694,3.2661,3.2664,3.2742,3.2744,3.2692,3.2833,3.2768,3.278,3.2829,3.2849,3.2864,3.2862,3.2616,0,0,0,0,0,3.2612,3.2656,3.2652,3.2728,3.2738,3.2722,3.2743,3.2722,3.2737,3.2743,3.2743,3.2759,3.2797,3.2823,3.2857,3.2953,3.2954,3.2999,3.3015,3.3028,3.3039,3.3091,3.3112,3.2895,3.2895,3.2894,0,0,3.2672,3.2676,3.2705,3.2745,3.2755,3.2801,3.2727,3.2778,3.2812,3.2751,3.2819,3.282,3.2836,3.2921,3.2958,3.2925,3.3099,3.3039,3.305,3.3054,3.3103,3.3123,3.3142,3.2901,3.29,3.2899,0,0,3.2804,3.2811,3.2877,3.2889,3.2905,3.2894,3.291,3.2916,3.2915,3.2983,3.2938,3.2978,3.3044,3.3058,3.3073,3.3213,3.3177,3.3225,3.3308,3.336,3.3377,3.3392,3.3443,3.3462,3.3236,3.3236,3.3237,0,3.2875,3.2943,3.2914,3.2969,3.2989,3.2937,3.3003,3.3016,3.3043,3.3058,3.3021,3.3104,3.311,3.3199,3.3233,3.3247,3.3265,3.3224,3.3377,3.3392,3.3405,3.3454,3.3473,3.3242,3.3242,3.3241,3.324,0,3.3031,3.3079,3.313,3.3158,3.3183,3.3244,3.3225,3.3255,3.3232,3.3225,3.3297,3.3303,3.3339,3.3358,3.3336,3.3444,3.3423,3.3382,3.3316,3.3432,3.3477,3.3496,3.3251,3.3249,3.3247,3.3245,0,0,3.3215,3.3229,3.3248,3.3261,3.3277,3.3313,3.3372,3.3408,3.3434,3.3455,3.3504,3.3562,3.3525,3.3543,3.3522,3.3568,3.368,3.3521,3.3521,3.3551,3.3802,3.3833,3.3855,3.3657,3.366,3.3663,3.3801,0,3.3347,3.3448,3.3426,3.3526,3.3571,3.3523,3.3574,3.359,3.3586,3.3623,3.3618,3.3661,3.3607,3.3618,3.3661,3.3658,3.373,3.3647,3.3703,3.3705,3.3701,3.3879,3.3912,3.4041,3.3818,3.3821,3.3823,0,3.3513,3.3542,3.3647,3.3657,3.3675,3.3722,3.3754,3.379,3.3807,3.3801,3.3823,3.3794,3.3853,3.3787,3.3869,3.3813,3.3835,3.3837,3.3841,3.3846,3.3772,3.3889,3.4082,3.4102,3.3851,3.3848,3.3846,0,3.3639,3.3704,3.3775,3.3788,3.3801,3.3836,3.3843,3.3856,3.388,3.3908,3.3923,3.3958,3.3977,3.4005,3.3987,3.394,3.4073,3.4004,3.407,3.4071,3.41,3.4099,3.4301,3.4113,3.4113,3.4112,3.4112,0,3.3789,3.3855,3.3833,3.3877,3.3951,3.3924,3.3998,3.4,3.4013,3.4057,3.4017,3.406,3.4032,3.4073,3.4059,3.413,3.4138,3.4136,3.4131,3.414,3.4141,3.4154,3.4145,3.4118,3.4116,3.4115,3.4115,0,3.3941,3.3929,3.4004,3.4011,3.4015,3.4069,3.4075,3.4117,3.411,3.4167,3.4179,3.4169,3.4215,3.42,3.4248,3.4239,3.433,3.4313,3.4325,3.4321,3.4388,3.4382,3.4606,3.4635,3.4428,3.443,3.4432,0,3.4038,3.4088,3.4102,3.4129,3.4139,3.4183,3.4208,3.4184,3.4212,3.4236,3.4276,3.4318,3.4351,3.4427,3.4424,3.4462,3.4446,3.4522,3.4452,3.4459,3.4449,3.4447,3.4452,3.4536,3.4539,3.4541,3.4542,0,3.4211,3.4203,3.424,3.4276,3.4307,3.4334,3.4357,3.4382,3.436,3.4393,3.444,3.4466,3.4516,3.456,3.4594,3.4602,3.4569,3.4565,3.4582,3.4592,3.4597,3.4596,3.4364,3.456,3.4558,3.4557,3.4556,3.4555,3.434,3.4383,3.44,3.4443,3.4459,3.4482,3.4522,3.4522,3.4561,3.4601,3.4584,3.4639,3.4657,3.47,3.4712,3.4755,3.4726,3.4751,3.4757,3.4764,3.4773,3.459,3.4761,3.476,3.476,3.476,3.4759,0,3.4512,3.4521,3.4561,3.4596,3.4631,3.4598,3.4622,3.4653,3.4702,3.4721,3.4755,3.481,3.4853,3.4854,3.4894,3.4928,3.4914,3.4939,3.4937,3.494,3.4796,3.4778,3.495,3.495,3.495,3.495,3.495,3.495,3.4606,3.4678,3.4673,3.4753,3.4761,3.4815,3.4832,3.4854,3.487,3.4933,3.4969,3.4969,3.4982,3.5023,3.5061,3.506,3.5077,3.5108,3.5102,3.4968,3.4949,3.4931,3.4914,3.5112,3.5112,3.5242,3.5243,3.5244]},{"header":{"parameterUnit":"m.s-1","parameterCategory":1,"la1":30.2991,"la2":30.254,"lo1":-89.0895,"lo2":-89.0444,"dy":0.0017,"dx":0.0017,"nx":28,"ny":28,"refTime":"2025-07-27T09:00:00:Z","depth":0,"parameterNumber":3,"parameterNumberName":"V-component_of_WINDS"},"data":[0,0,0,0,0,0,0,0,0,0,0,0,0,0,0,0,0,0,0,0,0,0,0,0,0,0,0,0,0,0,0,0,0,0,0,0,0,0,0,0,0,0,0,0,0,0,0,0,0,0,0,0,0,0,0,0,0,0,-3.3558,-3.3559,0,-3.3657,-3.3658,-3.3659,-3.3642,-3.364,-3.3638,-3.3637,-3.3736,-3.374,-3.3744,0,0,0,0,0,0,0,0,0,0,0,0,0,-3.3355,-3.3359,-3.3558,-3.356,-3.3561,-3.3656,-3.3658,-3.3659,-3.3642,-3.364,-3.3638,-3.3636,-3.3734,-3.3739,-3.3745,0,0,0,0,0,0,0,0,0,0,0,0,0,-3.3448,-3.336,-3.3558,-3.3564,-3.3565,-3.3656,-3.3658,-3.366,-3.3642,-3.364,-3.3637,-3.3635,-3.3733,-3.3739,-3.3745,-3.3836,0,0,-3.3765,-3.3767,0,0,0,0,0,0,0,0,-3.3442,-3.3455,-3.3562,-3.3564,-3.3565,-3.3634,-3.3623,-3.3719,-3.3643,-3.3613,-3.3637,-3.3634,-3.3704,-3.3713,-3.3737,-3.3841,-3.3845,-3.3765,-3.3769,-3.3772,-3.3774,0,0,0,0,0,0,0,-3.3436,-3.3451,-3.3597,-3.3563,-3.3566,-3.3561,-3.3572,-3.3641,-3.3672,-3.3616,-3.3615,-3.3626,-3.3705,-3.3731,-3.3739,-3.3847,-3.3765,-3.3771,-3.3775,-3.3777,-3.4032,-3.4034,0,0,0,0,0,0,-3.3428,-3.3445,-3.3594,-3.36,-3.3496,-3.3567,-3.3579,-3.3615,-3.3671,-3.3677,-3.3629,-3.3625,-3.3721,-3.3731,-3.3742,-3.3853,-3.3772,-3.3778,-3.3781,-3.4029,-3.4032,-3.4036,0,0,0,0,0,0,-3.3424,-3.3441,-3.359,-3.3523,-3.3541,-3.3573,-3.3614,-3.3618,-3.3644,-3.3681,-3.3686,-3.365,-3.3719,-3.3733,-3.3813,-3.3856,-3.3781,-3.3786,-3.4025,-3.403,-3.4034,-3.4076,0,0,0,0,0,0,-3.3418,-3.344,-3.3475,-3.3524,-3.3545,-3.366,-3.3617,-3.3622,-3.3655,-3.3652,-3.3702,-3.3708,-3.3718,-3.3804,-3.382,-3.3864,-3.3791,-3.4022,-3.4027,-3.4033,-3.407,-3.4081,-3.409,0,0,0,0,0,-3.3411,-3.3482,-3.3477,-3.3495,-3.3589,-3.3662,-3.3674,-3.3686,-3.3659,-3.3694,-3.3718,-3.3706,-3.3849,-3.3812,-3.383,-3.3877,-3.4019,-3.4026,-3.4032,-3.4066,-3.4079,-3.4089,0,0,0,0,0,0,-3.3437,-3.3488,-3.3483,-3.3572,-3.3613,-3.3659,-3.3704,-3.3698,-3.3747,-3.3742,-3.3753,-3.3765,-3.3846,-3.3869,-3.3827,-3.3968,-3.393,-3.3941,-3.395,-3.3963,-3.3972,-3.3965,-3.3797,0,0,0,0,0,-3.3453,-3.3508,-3.355,-3.3625,-3.3646,-3.3672,-3.3704,-3.3709,-3.3752,-3.3769,-3.3798,-3.384,-3.3894,-3.393,-3.3981,-3.4074,-3.4085,-3.4115,-3.4124,-3.4132,-3.4141,-3.4192,-3.4206,-3.4057,-3.4057,-3.4057,0,0,-3.3487,-3.3522,-3.3556,-3.3631,-3.3663,-3.372,-3.3686,-3.3747,-3.379,-3.3778,-3.3855,-3.3879,-3.3926,-3.4013,-3.4053,-3.4034,-3.4185,-3.4141,-3.4146,-3.4151,-3.4201,-3.4215,-3.4227,-3.4062,-3.4061,-3.406,0,0,-3.3577,-3.361,-3.3676,-3.3709,-3.3759,-3.3776,-3.3792,-3.3839,-3.3855,-3.3933,-3.3925,-3.3976,-3.4069,-3.4103,-3.4133,-3.4239,-3.423,-3.4255,-3.4305,-3.4355,-3.4367,-3.4378,-3.4416,-3.4429,-3.4264,-3.4264,-3.4264,0,-3.3613,-3.3699,-3.371,-3.3773,-3.3807,-3.3799,-3.3867,-3.3898,-3.3962,-3.3986,-3.3965,-3.4083,-3.4114,-3.4209,-3.4235,-3.4259,-3.4278,-3.4249,-3.4365,-3.4375,-3.4385,-3.4422,-3.4436,-3.4267,-3.4266,-3.4266,-3.4266,0,-3.3741,-3.38,-3.3848,-3.3911,-3.395,-3.4014,-3.4036,-3.4074,-3.4076,-3.4095,-3.4176,-3.4213,-3.4273,-3.4296,-3.4299,-3.4393,-3.438,-3.4362,-3.4324,-3.4402,-3.4437,-3.4451,-3.4271,-3.427,-3.4269,-3.4268,0,0,-3.3849,-3.3919,-3.3936,-3.3965,-3.402,-3.4067,-3.4131,-3.4191,-3.4223,-3.4268,-3.4323,-3.4403,-3.4387,-3.4421,-3.4427,-3.4471,-3.4553,-3.4448,-3.4449,-3.4466,-3.466,-3.4673,-3.4689,-3.4548,-3.4551,-3.4553,-3.4656,0,-3.3946,-3.406,-3.4073,-3.4175,-3.4231,-3.4226,-3.4282,-3.4322,-3.4342,-3.4392,-3.4414,-3.4471,-3.4446,-3.4466,-3.4509,-3.4534,-3.4592,-3.4527,-3.4599,-3.4602,-3.4588,-3.4707,-3.4721,-3.4817,-3.467,-3.4672,-3.4674,0,-3.4073,-3.4122,-3.423,-3.4279,-3.4303,-3.4353,-3.441,-3.4458,-3.4503,-3.4515,-3.4553,-3.4554,-3.4621,-3.4581,-3.4674,-3.4629,-3.466,-3.4677,-3.4681,-3.4688,-3.4642,-3.4718,-3.4848,-3.4862,-3.4695,-3.4693,-3.4692,0,-3.4142,-3.4236,-3.4313,-3.4338,-3.4396,-3.4432,-3.4458,-3.4501,-3.4536,-3.4585,-3.4608,-3.4664,-3.4695,-3.4739,-3.4755,-3.4724,-3.4848,-3.4808,-3.4859,-3.4859,-3.4885,-3.4883,-3.5022,-3.4905,-3.4904,-3.4904,-3.4904,0,-3.4248,-3.4315,-3.4345,-3.4392,-3.4467,-3.4481,-3.4555,-3.4579,-3.4618,-3.467,-3.4668,-3.4717,-3.4736,-3.4788,-3.4801,-3.4877,-3.489,-3.4902,-3.4905,-3.4902,-3.4901,-3.4922,-3.4916,-3.4908,-3.4907,-3.4906,-3.4906,0,-3.4338,-3.4361,-3.4444,-3.4493,-3.4507,-3.456,-3.4602,-3.4648,-3.4668,-3.4734,-3.475,-3.4782,-3.4843,-3.4864,-3.4938,-3.4947,-3.5035,-3.5032,-3.502,-3.5021,-3.507,-3.5066,-3.5228,-3.525,-3.5118,-3.5119,-3.512,0,-3.4404,-3.4455,-3.451,-3.4545,-3.4573,-3.4629,-3.4666,-3.4682,-3.472,-3.4777,-3.4816,-3.4878,-3.4927,-3.5026,-3.5055,-3.5112,-3.5111,-3.5164,-3.5119,-3.5116,-3.5112,-3.5109,-3.5115,-3.5172,-3.5173,-3.5174,-3.5175,0,-3.4519,-3.4528,-3.4581,-3.4639,-3.4683,-3.4728,-3.4773,-3.4801,-3.4825,-3.4868,-3.4931,-3.497,-3.5046,-3.5107,-3.5166,-3.5193,-3.5188,-3.5189,-3.5204,-3.5202,-3.5193,-3.52,-3.5043,-3.5185,-3.5184,-3.5184,-3.5183,-3.5183,-3.46,-3.4645,-3.4691,-3.4751,-3.4786,-3.4828,-3.4874,-3.49,-3.4953,-3.5018,-3.5024,-3.5093,-3.5138,-3.5216,-3.5246,-3.53,-3.5285,-3.5306,-3.5312,-3.5317,-3.5321,-3.5185,-3.5311,-3.531,-3.531,-3.531,-3.531,0,-3.4715,-3.4745,-3.4799,-3.4862,-3.4909,-3.4902,-3.4951,-3.499,-3.5051,-3.5094,-3.5143,-3.5217,-3.5276,-3.5311,-3.5371,-3.5407,-3.5407,-3.5422,-3.542,-3.5426,-3.5331,-3.5312,-3.5422,-3.5422,-3.5422,-3.5422,-3.5422,-3.5422,-3.4781,-3.4858,-3.4873,-3.4968,-3.4998,-3.5065,-3.5094,-3.5133,-3.5167,-3.5249,-3.5299,-3.5322,-3.5362,-3.5425,-3.5479,-3.5488,-3.551,-3.5527,-3.5535,-3.5444,-3.5433,-3.5422,-3.5405,-3.5532,-3.5532,-3.5626,-3.5627,-3.5628]}]]